Location: Iesi
(43.5167°N, 13.2333°E)
Time: 17:08:28
(UTC+00:00)

Cosmos 1459 Rocket - Pass Details

Date: 08 August 2020
Orbit: 936 x 1000 km, 83.0° (Epoch: 22 September)

Event Time Altitude Azimuth Distance (km) Brightness Sun altitude
Exits shadow 20:58:04 42° 112° (ESE) 1,372 4.4 -23.2°
Maximum altitude 20:58:59 45° 89° (E) 1,324 4.4 -23.3°
Drops below altitude 10° 21:04:57 10° 20° (NNE) 2,769 6.8 -23.9°
Sets 21:07:36 0° 14° (NNE) 3,728 7.7 -24.1°
